Погода в Камышлове

Погода в Камышлове : погода сейчас, прогноз погоды и архив. Всё, что Вы хотите узнать о погоде в Камышлове!

Хотите узнать прогноз погоды в Камышлове? Тогда Вам сюда: Погода в Камышлове

Поиск расширенной информации на нашем сайте:

Другие новости

Новости СМИ2

Главная страница сайта

Новости сайта

02.10.2013

Напоминаем, что на нашем новом сайте вы можете получить высокодетализированные прогнозы погоды по пунктам России, СНГ и мира (включающие важные для авиации метеовеличины, такие как направление и скорость ветра, видимость, явления погоды, количество и форма облачности, нижняя и верхняя граница облачности), а также ознакомиться с разнообразными материалами по авиационной метеорологии и подборкой полезных ссылок на эту тему.

Сайт Метеоцентр.Азия посвящён разработке технологий оптимизации авиаметеорологического обслуживания, включая проектирование и перспективное создание нескольких автоматизированных авиаметеорологических систем:
- система выпуска высокодетальных прогностических карт явлений погоды для нижнего воздушного пространства по России и ближнему зарубежью;
- система верификации прогнозов TAF (выпускаемых синоптиками официальных АМСГ РФ и ближнего зарубежья) и AUTOTAF (выпускаемых сайтом Метеоцентр.Азия) - выявление ошибок, онлайн-сопоставление с фактической погодой METAR, автоматическое внесение коррективов в прогнозы при резком отклонении фактической погоды от прогноза, подсчёт оправдываемости прогнозов по элементам и в целом;
- система обработки, анализа и отображения авиаметеорологической информации для применения провайдерами метеорологической информации.


Погода в Камышлове - сегодня

Время (UTC), дата Ветер
(°,м/с) 
Видим.   Явления Облачность Т
(°С)
Тd
(°С)
f(%) Тe
(°С)
Pmin
(гПа)
dP
(гПа)
Po
(мм)
O2
(г/м3)
Тmin Tmax R s Состояние
почвы
12 25.02.17 150 (ЮВ) 20000 м    10/10 600 м 
[Sc]
-6.3 -9.5 78 -10  1008.2  -1.8  744  308           
15 25.02.17 160 (Ю) 4{10}  2000 м  снег  10/10 300 м 
[Ns]
-5.9 -7.7 87 -9  1006.3  -1.8  743  307    -5.9     
18 25.02.17 180 (Ю) 4000 м  {снег}  10/10 600 м 
[Sc]
-4.1 -6.1 86 -7  1004.7  -1.5  742  304           
21 25.02.17 170 (Ю) 4000 м    10/10 600 м 
[Sc]
-2.1 -4.2 86 -4  1003.7  -0.8  741  301           
00 26.02.17 160 (Ю) 4000 м    10/0 средняя 
[Ac As]
-0.3 -2.6 84 -2  1002.6  -1  740  299           
03 26.02.17 170 (Ю) 20000 м    10/10 600 м 
[Sc]
+0.8 -1.2 86 -2  1000  -2.6  738  297  -5.9    0.3  38  равномерный
мокрый или
старый снег
100% 
06 26.02.17 180 (Ю) 5-10{11}  4000 м  слаб. дождь  10/10 300 м 
[Ns]
+2.2 -0.1 85 997.3  -2.4  736  294           
09 26.02.17 200 (Ю) 4{10}  20000 м  в посл. час дождь  10/10 300 м 
[Ns]
+4.5 +0.4 75 +3  997  -0.2  736  292           
12 26.02.17 190 (Ю) 20000 м  {дождь}  10/10 600 м 
[Sc]
+3.4 +1.2 85 +3  997.4  0.3  737  293           
15 26.02.17 220 (ЮЗ) 4000 м  в посл. час ливневой дождь  10/10 600 м кучево-дожд. 
[Cb cap]
+2.8 +0.6 85 +1  999.1  1.6  738  294    +4.7     
18 26.02.17 290 (З) 4000 м  слаб. ливневой снег  10/10 600 м кучево-дожд. 
[Cb cap]
-0.3 -1.9 89 -3  1001.3  739  298           
21 26.02.17 300 (СЗ) 4000 м  слаб. ливневой снег  10/10 600 м кучево-дожд. 
[Cb cap]
-2.5 -3.8 91 -5  1003.5  741  302           
00 27.02.17 260 (З) 2000 м  ливневой снег  10/10 600 м кучево-дожд. 
[Cb cap]
-4.1 -5.3 91 -4  1004.2  0.6  741  304           
03 27.02.17 260 (З) 2000 м  снег{ливн. осадки}  10/10 300 м 
[Ns]
-4.2 -5.5 91 -6  1003.9  -0.2  741  304  -4.4    36  равномерный
мокрый или
старый снег
100% 
06 27.02.17 300 (СЗ) 20000 м  {ливн. осадки, снег}  9/9 600 м 
[Sc]
-4.1 -9.8 64 -8  1005.3  1.3  742  304           
09 27.02.17 290 (З) 5{11}  20000 м    8/8 600 м 
[Sc]
-3.5 -12.7 49 -7  1006.9  1.6  743  304           
12 27.02.17 250 (З) 6-10{11}  20000 м    4/4 600 м 
[Sc]
-2.9 -12.2 49 -7  1009.5  2.6  745  305           
15 27.02.17 220 (ЮЗ) 4{10}  4000 м    4/4 600 м 
[Sc]
-4.9 -12.3 56 -8  1011.8  2.1  747  307    -2.4  0.4     
18 27.02.17 200 (Ю) 4000 м    4/4 600 м 
[Sc]
-5.4 -12.2 59 -8  1012.2  0.4  747  308           
21 27.02.17 230 (ЮЗ) 4000 м    4/4 600 м 
[Sc]
-3.8 -10.4 60 -7  1012.2  0.1  747  306           
00 28.02.17 240 (ЮЗ) 5{10}  4000 м    4/4 600 м 
[Sc]
-4.9 -9.7 69 -9  1014.4  2.1  749  308           
03 28.02.17 250 (З) 20000 м    3/3 600 м 
[Sc]
-5.1 -7.9 81 -8  1016.6  2.2  750  309  -5.7      36  равномерный
мокрый или
старый снег
100% 
06 28.02.17 220 (ЮЗ) 20000 м    6/0 средняя, верхняя 
[Ac trans|Ci fib]
-3.3 -7.5 73 -4  1018.3  1.8  752  307  -5.8         
09 28.02.17 230 (ЮЗ) 20000 м    8/0 средняя 
[Ac trans]
-0.6 -6.5 64 -2  1018.3  0.1  752  304           
12 28.02.17 170 (Ю) 20000 м    10/0 средняя 
[Ac As]
-0.8 -6.6 65 -2  1018.1  -0.2  752  304           
Время (UTC), дата Ветер
(°,м/с) 
Видим.   Явления Облачность Т
(°С)
Тd
(°С)
f(%) Тe
(°С)
Pmin
(гПа)
dP
(гПа)
Po
(мм)
O2
(г/м3)
Тmin Tmax R s Состояние
почвы

Для получения пояснительной информации подведите курсор к названию столбца.

ПОГОДА в Камышлове - архив

Всё, что Вы хотите узнать о погоде в Камышлове - удобно и подробно!

Выберите нужную дату (начиная с 1 января 2015* года) и нажмите кнопку "Найти".
Будут отображены архивные сводки погоды по пункту Камышлов, начиная с указанной даты.


Отображать данные в формате CSV (для использования в таблицах Excel)


Внимание! Наш архив погоды предназначен исключительно для личного некоммерческого использования в познавательных целях. Если Вам необходимы официальные справки о состоянии погоды (для производственных, юридических, коммерческих и т.п. целей), обращайтесь в органы Росгидромета.

*Примечание: данная дата относится к архиву по метеостанциям СССР (Россия, СНГ, Балтия).
Архив по метеостанциям Зарубежной Европы и Азии (кроме Китая) хранится 10 дней, по другим регионам земного шара (Китай, Африка, Америка, Австралия, Океания) - 1 день.

Камышлов - район местоположения метеостанции


Название, широта, долгота, высота метеостанции:
Камышлов 56.9°ш. 62.7°д. 127 м над ур. моря [Российская Федерация]

Дополнительная информация

В oтличие oт бoльшинства пoгoдных сайтoв мы публикуем пoдрoбную метеoинфoрмацию в детальнoм прoфессиoнальнoм фoрмате.

Характеристики температуры и влажнoсти вoздуха измеряются на высoте 2 м в тени вдали oт зданий и деревьев.
Скoрoсть ветра измеряется на высoте 10 м (на урoвне рoста челoвека скoрoсть ветра ниже в 1.5-2 раза). Если метеoстанция нахoдится в гoрoде или в лесу, тo скoрoсть ветра занижена на 2-4 м/с пo сравнению с oткрытым местoм. Скoрoсть ветра над акватoриями крупных рек и oзёр, а также на вершинах хoлмoв на 2-5 м/с выше, чем в oбычных услoвиях.
Атмoсфернoе давление в разных тoчках местнoсти мoжет значительнo oтличаться oт давления на метеoстанции, в зависимoсти oт услoвий рельефа (при пoдъёме на 10 м давление пoнижается примернo на 1 мм рт.ст.).